Current Version              Previous Version:    01  02  03  04  05  06  07  08  09  10  11  12  13  14  15  16  17  18  19  20  21  22  23  24  25  26  27  28  29  30  
   31  32  33  34  35  36  37  38  39  40  41  42  43  44  45  46  47  48  49  50  51  52  53  54  55  56  57  58  59  60  

[Printable]
386
ASUS44 KFWD 290101
RWRTX
NORTH TEXAS HOURLY WEATHER ROUNDUP
NATIONAL WEATHER SERVICE FORT WORTH TX
700 PM CST FRI NOV 28 2014

NOTE: "FAIR" INDICATES FEW OR NO CLOUDS BELOW 12,000 FEET WITH NO
SIGNIFICANT WEATHER AND/OR OBSTRUCTIONS TO VISIBILITY.

TXZ118-119-290200-
DALLAS/FORT WORTH METROPLEX

CITY           SKY/WX    TMP DP  RH WIND       PRES   REMARKS
DFW AIRPORT    PTCLDY    63  48  58 S14       30.01S
DALLAS LOVE    PTCLDY    64  49  57 S14       30.02S
FTW MEACHAM    CLEAR     65  47  52 S12       30.00F
DAL-EXECUTIVE  CLEAR     66  48  52 S10G22    30.02S
FTW-ALLIANCE   PTCLDY    63  46  54 S9        29.99F
FTW-SPINKS     CLEAR     64  48  55 S12       30.04S
ARLINGTON      CLEAR     66  46  48 S13       30.02S
MESQUITE       CLEAR     63  48  59 S14       30.04S
LANCASTER      CLEAR     63  47  55 S10G20    30.05S
$$

TXZ091>094-102>105-117-120-121-131>134-290200-
NORTH CENTRAL TEXAS

CITY           SKY/WX    TMP DP  RH WIND       PRES   REMARKS
SHRMAN/DENISON CLEAR     62  52  71 S15       30.00S
BRIDGEPORT     CLEAR     62  48  61 S7        29.99F
DENTON         CLEAR     61  47  59 S10       29.99S
MCKINNEY       CLEAR     62  50  64 S14       30.01S
ROCKWALL       CLEAR     62  50  65 S14G21    30.02S
TERRELL        CLEAR     63  50  62 S9        30.05S
WAXAHACHIE     CLEAR     62  50  64 S12G20    30.05S
$$

TXZ083>090-098>101-113>116-127>130-139>142-154-155-290200-
WESTERN NORTH TEXAS

CITY           SKY/WX    TMP DP  RH WIND       PRES   REMARKS
WICHITA FALLS  PTCLDY    62  45  53 S16       29.91S
WF-KICKAPOO    PTCLDY    58  45  60 S10       29.93F
ABILENE        PTCLDY    64  38  38 S15       30.00F
ABILENE-DYESS  PTCLDY    63  40  43 S16       29.99S
MINERAL WELLS  CLEAR     62  47  57 S10       29.99R
STEPHENVILLE   CLEAR     60  46  58 S8        30.06R
COMANCHE       CLEAR     60  46  59 S9        30.04S
$$

TXZ143>147-156>162-174-175-290200-
CENTRAL TEXAS

CITY           SKY/WX    TMP DP  RH WIND       PRES   REMARKS
WACO           CLEAR     61  48  62 S12       30.07S
WACO-TSTC      CLEAR     63  50  63 S10       30.08
WACO-MCGREGOR  CLEAR     63  45  51 S13       30.09S
CORSICANA      CLEAR     60  50  69 S8        30.08F
MEXIA          CLEAR     59  51  73 S7        30.08S
HEARNE         CLEAR     61  51  69 SE5       30.12S
TEMPLE         CLEAR     59  43  55 S8        30.08S
KILLEEN        CLEAR     58  46  63 S7        30.08S
KILLEEN-SKYLRK CLEAR     59  43  55 S8        30.08R
FORT HOOD      CLEAR     63  47  55 SE7       30.09R
HAMILTON       CLEAR     61  45  56 S13G21    30.07R
LAMPASAS       CLEAR     58  47  67 S3        30.07F
$$

TXZ095>097-106>112-122>126-135>138-148>153-164>167-290200-
EAST TEXAS

CITY           SKY/WX    TMP DP  RH WIND       PRES   REMARKS
PARIS          CLEAR     55  46  71 S10       30.04F
SULPHUR SPRNGS CLEAR     63  49  61 S8        30.06F
MINEOLA        CLEAR     61  50  67 SE6       30.07F
TYLER          CLEAR     61  50  67 S10       30.08F
LONGVIEW       CLEAR     57  48  72 S8        30.09F
PALESTINE      CLEAR     61  53  74 SE5       30.11S
JACKSONVILLE   PTCLDY    61  52  73 S9        30.13S
HENDERSON      PTCLDY    59  50  73 S7        30.12S
NACOGDOCHES    PTCLDY    59  52  77 S7        30.15R
LUFKIN         CLEAR     62  52  69 S9        30.14F
$$

SUPPLEMENTAL OBSERVATIONS (CENTRAL)

CITY           SKY/WX    TMP DP  RH WIND       PRES   REMARKS
$$

SUPPLEMENTAL OBSERVATIONS (WEST)

CITY           SKY/WX    TMP DP  RH WIND       PRES   REMARKS
$$

SUPPLEMENTAL OBSERVATIONS (EAST)

CITY           SKY/WX    TMP DP  RH WIND       PRES   REMARKS
$$

SUPPLEMENTAL OBSERVATIONS ARE A COLLECTION OF AUTOMATED INSTRUMENTS
THAT ARE MAINTAINED BY A VARIETY OF FEDERAL AND STATE AGENCIES.
CERTAIN ELEMENTS...SUCH AS HUMIDITY VALUES AND SUSTAINED WIND
SPEEDS...MAY BE APPROXIMATED.